Location: Emblem
(62.4273°N, 6.4710°E)
Time: 01:29:28
(UTC+02:00)

UWE-3 - Pass Details

Date: 21 March 2023
Orbit: 577 x 669 km, 97.7° (Epoch: 06 June)

Event Time Altitude Azimuth Distance (km) Brightness Sun altitude
Rises 05:25:33 0° 17° (NNE) 3,042 ? -8.5°
Reaches altitude 10° 05:28:00 10° 7° (N) 2,122 ? -8.3°
Maximum altitude 05:32:03 31° 307° (NW) 1,182 ? -7.8°
Drops below altitude 10° 05:36:04 10° 246° (WSW) 2,090 ? -7.4°
Enters shadow 05:36:22 - 244° (WSW) 2,197 ? -7.3°
